Location: Brusselsch Zeekanaal
(50.8667°N, 4.3667°E)
Time: 06:16:49
(UTC+00:00)

CZ-2D R/B - Pass Details

Date: 08 November 2025
Orbit: 788 x 842 km, 98.9° (Epoch: 11 December)

Event Time Altitude Azimuth Distance (km) Brightness Sun altitude
Rises 03:11:03 0° 11° (N) 3,342 5.6 -33.9°
Reaches altitude 10° 03:13:28 10° 6° (N) 2,399 4.8 -33.6°
Enters shadow 03:14:21 15° 3° (N) 2,070 4.4 -33.4°
